Corpus Christi, TX

1:25 AM CST on December 03, 2016 (GMT -0600)
Corpus Christi Naval Air Station-Truax

Weather History for KNGP - January, 2014

Change the Weather History Date:

Wednesday, January 1, 2014

  Actual Average Record
Temperature  
Mean Temperature 52 °F -  
Max Temperature 57 °F 65 °F 54 °F (2016)
Min Temperature 48 °F 48 °F 43 °F (2015)
Degree Days  
Heating Degree Days 12    
Growing Degree Days 2 (Base 50)    
Moisture  
Dew Point 50 °F    
Average Humidity 91    
Maximum Humidity 97    
Minimum Humidity 83    
Precipitation  
Precipitation 0.00 in - - ()
Sea Level Pressure  
Sea Level Pressure 30.10 in    
Wind  
Wind Speed 7 mph (NNW)    
Max Wind Speed 10 mph    
Max Gust Speed -    
Visibility 6 miles    
Events      
Averages and records for this station are not official NWS values.
T = Trace of Precipitation, MM = Missing Value Source: NWS Daily Summary

Daily Weather History Graph

Daily Weather History Graph

Search for Another Location

Airport or City:

Trip Planner

Search our weather history database for the weather conditions in past years. The results will help you decide how hot, cold, wet, or windy it might be!

Date:

Astronomy

Jan. 01, 2014 Rise Set
Actual Time 7:19 AM CST 5:45 PM CST
Civil Twilight 6:54 AM CST 6:11 PM CST
Nautical Twilight 6:25 AM CST 6:40 PM CST
Astronomical Twilight 5:56 AM CST 7:09 PM CST
Moon 7:17 AM CST (1/1) 6:25 PM CST (1/1)
Length of Visible Light 11h 17m
Length of Day
10h 25m
New Moon, 0% of the Moon is Illuminated
Jan 1
New Moon
Jan 7
First Quarter
Jan 15
Full
Jan 23
Last Quarter
Jan 30
New

Hourly Weather History & Observations

Time (CST) Temp. Dew Point Humidity Pressure Visibility Wind Dir Wind Speed Gust Speed Precip Events Conditions
12:56 AM 48.9 °F 45.0 °F 86% 30.26 in 10.0 mi NNW 4.6 mph - N/A   Overcast
1:56 AM 48.9 °F 45.0 °F 86% 30.23 in 10.0 mi NNW 6.9 mph - N/A   Overcast
2:56 AM 48.0 °F 45.0 °F 89% 30.22 in 10.0 mi NNW 6.9 mph - N/A   Overcast
3:56 AM 48.0 °F 45.0 °F 89% 30.20 in 10.0 mi NNW 9.2 mph - 0.00 in   Overcast
4:56 AM 48.0 °F 44.1 °F 86% 30.18 in 10.0 mi North 8.1 mph - N/A   Overcast
5:56 AM 48.0 °F 44.1 °F 86% 30.18 in 10.0 mi NNW 10.4 mph - N/A   Overcast
6:14 AM 48.0 °F 44.1 °F 86% 30.18 in 10.0 mi NNW 9.2 mph - N/A   Overcast
6:56 AM 48.0 °F 44.1 °F 86% 30.18 in 10.0 mi North 10.4 mph - N/A   Overcast
7:56 AM 48.9 °F 46.0 °F 90% 30.19 in 10.0 mi North 10.4 mph - N/A   Overcast
8:56 AM 50.0 °F 45.0 °F 83% 30.19 in 10.0 mi North 9.2 mph - N/A   Overcast
9:56 AM 51.1 °F 46.0 °F 83% 30.19 in 10.0 mi North 10.4 mph - N/A   Overcast
10:56 AM 51.1 °F 46.9 °F 86% 30.19 in 10.0 mi NW 6.9 mph - N/A   Overcast
11:56 AM 52.0 °F 48.0 °F 86% 30.14 in 7.0 mi NW 5.8 mph - N/A   Overcast
12:56 PM 53.1 °F 48.0 °F 83% 30.09 in 8.0 mi NW 8.1 mph - N/A   Overcast
1:48 PM 54.0 °F 48.9 °F 83% 30.07 in 8.0 mi NNW 4.6 mph - N/A   Overcast
1:56 PM 54.0 °F 48.9 °F 83% 30.07 in 6.0 mi NW 4.6 mph - N/A   Haze
2:56 PM 54.0 °F 51.1 °F 90% 30.05 in 6.0 mi NW 6.9 mph - N/A   Overcast
3:18 PM 55.0 °F 51.1 °F 86% 30.05 in 5.0 mi NW 6.9 mph - N/A   Overcast
3:56 PM 54.0 °F 52.0 °F 93% 30.04 in 3.0 mi NNW 8.1 mph - N/A   Overcast
4:09 PM 54.0 °F 53.1 °F 97% 30.04 in 2.5 mi NNW 6.9 mph - N/A   Overcast
4:44 PM 55.0 °F 54.0 °F 96% 30.04 in 1.8 mi NNW 6.9 mph - N/A   Overcast
4:56 PM 55.0 °F 54.0 °F 96% 30.04 in 1.8 mi NNW 9.2 mph - N/A   Overcast
5:06 PM 55.0 °F 54.0 °F 96% 30.04 in 1.8 mi NNW 6.9 mph - N/A   Overcast
5:32 PM 55.0 °F 54.0 °F 96% 30.04 in 1.5 mi NNW 8.1 mph - N/A   Overcast
5:38 PM 55.0 °F 54.0 °F 96% 30.04 in 2.0 mi NNW 6.9 mph - N/A   Overcast
5:56 PM 55.0 °F 54.0 °F 96% 30.03 in 2.5 mi North 8.1 mph - N/A   Overcast
6:24 PM 55.0 °F 54.0 °F 96% 30.02 in 2.5 mi North 4.6 mph - N/A   Overcast
6:48 PM 55.0 °F 54.0 °F 96% 30.01 in 2.5 mi North 6.9 mph - N/A   Overcast
6:56 PM 55.0 °F 54.0 °F 96% 30.01 in 3.0 mi North 6.9 mph - N/A   Overcast
7:56 PM 55.9 °F 55.0 °F 97% 30.02 in 3.0 mi North 3.5 mph - N/A   Overcast
8:11 PM 55.9 °F 54.0 °F 93% 30.03 in 4.0 mi North 5.8 mph - N/A   Overcast
8:56 PM 55.9 °F 55.0 °F 97% 30.04 in 4.0 mi NNW 8.1 mph - N/A   Overcast
9:23 PM 55.9 °F 55.0 °F 97% 30.04 in 4.0 mi NNW 6.9 mph - N/A   Overcast
9:56 PM 55.9 °F 55.0 °F 97% 30.04 in 5.0 mi NNW 4.6 mph - N/A   Overcast
10:56 PM 57.0 °F 55.0 °F 93% 30.05 in 5.0 mi North 4.6 mph - N/A   Overcast
11:56 PM 57.0 °F 55.0 °F 93% 30.06 in 5.0 mi North 8.1 mph - N/A   Overcast